Flight Track Log - Related Links

Times and Time Zones

All times are in EDT time to prevent confusion due to time zone crossing. See the TCF3476 flight status page for this flight to view local times or setup timezone preferences in your user account.

Time Position Orientation Groundspeed Altitude Reporting Facility
EDT Latitude Longitude Course Direction KTS MPH feet Rate Location/Type
06:25AM 45.3000 -75.6667 198° South 40 46 300  Level Montreal Center
06:26AM 45.2833 -75.7000 235° Southwest 170 196 2,600 2,350 Climbing Montreal Center
06:27AM 45.2500 -75.7833 240° Southwest 230 265 5,000 2,800 Climbing Montreal Center
06:28AM 44.9647 -75.7426 199° South  Level FlightAware Approximate
06:28AM 45.1833 -75.8333 208° Southwest 270 311 8,200  Level Montreal Center
06:29AM 44.8513 -75.7947 197° South  Level FlightAware Approximate
06:29AM 45.1167 -75.8500 190° South 300 345 10,700  Level Montreal Center
06:30AM 44.7364 -75.8394 198° South  Level FlightAware Approximate
06:30AM 45.0167 -75.8667 187° South 330 380 13,000  Level Montreal Center
06:31AM 44.6412 -75.8817 198° South  Level FlightAware Approximate
06:31AM 44.9333 -75.9000 196° South 340 391 15,300  Level Montreal Center
06:32AM 44.8167 -75.9167 186° South 350 403 17,800 2,250 Climbing Montreal Center
06:33AM 44.7333 -75.9167 180° South 360 414 19,800 1,800 Climbing Montreal Center
06:34AM 44.6333 -75.9500 193° South 370 426 21,400 1,850 Climbing Montreal Center
06:35AM 44.5167 -75.9667 186° South 380 437 23,500 1,700 Climbing Montreal Center
06:36AM 44.4167 -76.0000 193° South 390 449 24,800 1,364 Climbing Montreal Center
06:37AM 44.3394 -76.0050 183° South 391 450 26,000 1,636 Climbing Boston Center
06:38AM 44.2283 -76.0244 187° South 397 457 27,800 984 Climbing Boston Center
06:39AM 44.1258 -76.0414 187° South 407 468 28,000 98 Climbing Boston Center
06:40AM 44.0147 -76.0606 187° South 407 468 28,000  Level Boston Center
06:41AM 43.9036 -76.0797 187° South 407 468 28,000  Level Boston Center
06:42AM 43.7925 -76.0989 187° South 407 468 28,000  Level Boston Center
06:43AM 43.6814 -76.1211 188° South 407 468 28,000  Level Boston Center
06:44AM 43.5703 -76.1372 186° South 412 474 28,000  Level Boston Center
06:45AM 43.4592 -76.1589 188° South 412 474 28,000  Level Boston Center
06:46AM 43.3500 -76.1753 186° South 412 474 28,000  Level Boston Center
06:47AM 43.2369 -76.1967 188° South 412 474 28,000  Level Boston Center
06:48AM 43.1314 -76.2331 194° South 407 468 28,000  Level Boston Center
06:49AM 43.0369 -76.3094 211° Southwest 391 450 28,000  Level Boston Center
06:51AM 42.8378 -76.4694 211° Southwest 399 459 28,000  Level New York Center
06:52AM 42.7467 -76.5489 213° Southwest 399 459 28,000  Level New York Center
06:53AM 42.6536 -76.6197 209° Southwest 399 459 28,000  Level New York Center
06:54AM 42.5603 -76.6986 212° Southwest 399 459 28,000  Level New York Center
06:55AM 42.4650 -76.7742 210° Southwest 399 459 28,000  Level New York Center
06:56AM 42.3739 -76.8472 211° Southwest 399 459 28,000  Level New York Center
06:57AM 42.2825 -76.9228 211° Southwest 399 459 28,000  Level New York Center
06:58AM 42.1892 -76.9981 211° Southwest 399 459 28,000  Level New York Center
06:59AM 42.0956 -77.0733 211° Southwest 399 459 28,000  Level New York Center
07:00AM 42.0019 -77.1481 211° Southwest 399 459 28,000  Level New York Center
07:01AM 41.9064 -77.2225 210° Southwest 399 459 28,000 -350 Level New York Center
07:02AM 41.8150 -77.2972 211° Southwest 399 459 27,300 -814 Descending New York Center
07:03AM 41.7169 -77.3736 210° Southwest 399 459 26,400 -645 Descending New York Center
07:04AM 41.6278 -77.4425 210° Southwest 394 453 26,000 -443 Descending New York Center
07:05AM 41.5361 -77.5167 211° Southwest 394 453 25,500 -700 Descending New York Center
07:06AM 41.4464 -77.5881 211° Southwest 383 441 24,600 -750 Descending New York Center
07:07AM 41.3572 -77.6536 209° Southwest 378 435 24,000 -298 Descending New York Center
07:08AM 41.2700 -77.7219 210° Southwest 378 435 24,000  Level New York Center
07:09AM 41.1825 -77.7903 210° Southwest 378 435 24,000  Level New York Center
07:10AM 41.0931 -77.8581 210° Southwest 378 435 24,000  Level New York Center
07:11AM 40.9967 -77.9031 199° South 378 435 24,000  Level New York Center
07:12AM 40.8953 -77.8542 160° South 363 418 24,000 -150 Level New York Center
07:13AM 40.7967 -77.7972 156° South 368 423 23,700 -605 Descending New York Center
07:14AM 40.6994 -77.7461 158° South 373 429 22,800 -958 Descending New York Center
07:15AM 40.6044 -77.6956 158° South 373 429 21,800 -934 Descending New York Center
07:16AM 40.5114 -77.6478 159° South 373 429 20,900 -1,041 Descending New York Center
07:17AM 40.4203 -77.6006 158° South 364 419 19,700 -1,220 Descending New York Center
07:18AM 40.3292 -77.5536 159° South 359 413 18,500 -1,200 Descending New York Center
07:20AM 40.1667 -77.4667 158° South 337 388 16,400 -1,186 Descending Potomac TRACON
07:21AM 40.0833 -77.4333 163° South 331 381 15,200 -1,158 Descending Potomac TRACON
07:22AM 40.0167 -77.4000 159° South 324 373 14,200 -1,056 Descending Potomac TRACON
07:22AM 39.9333 -77.3833 171° South 323 372 13,300 -1,167 Descending Potomac TRACON
07:23AM 39.8500 -77.3667 171° South 314 361 12,100 -1,333 Descending Potomac TRACON
07:24AM 39.7667 -77.3500 171° South 305 351 10,900 -1,105 Descending Potomac TRACON
07:25AM 39.7000 -77.3500 180° South 282 325 10,000 -950 Descending Potomac TRACON
07:26AM 39.6167 -77.3667 189° South 275 316 9,000 -1,000 Descending Potomac TRACON
07:27AM 39.5500 -77.3833 191° South 270 311 8,000 -1,000 Descending Potomac TRACON
07:28AM 39.4833 -77.4000 191° South 255 293 7,100 -1,053 Descending Potomac TRACON
07:29AM 39.4167 -77.4167 191° South 254 292 6,000 -1,105 Descending Potomac TRACON
07:30AM 39.3500 -77.4167 180° South 245 282 5,000 -1,000 Descending Potomac TRACON
07:31AM 39.2833 -77.4500 201° Southwest 237 273 4,100 -750 Descending Potomac TRACON
07:32AM 39.2167 -77.4500 180° South 235 270 3,500 -450 Descending Potomac TRACON
07:33AM 39.1500 -77.4500 180° South 236 272 3,200 -400 Descending Potomac TRACON
07:34AM 39.1000 -77.4500 180° South 215 247 2,700 -500 Descending Potomac TRACON

Login

Don't have an account? Register now (free) for customized features, flight alerts, and more!